Terminal Aerodrome Forecast
Issued by NWS Sterling, VA

Current Version | Previous Version | Graphics & Text | Print | Product List | Glossary On
Versions: 1 2 3 4 5 6 7 8 9 10 11 12 13
658
FTUS41 KLWX 180857 AAA
TAFMRB
TAF AMD
KMRB 180857Z 1809/1906 00000KT P6SM SKC
     FM181800 17005KT P6SM SKC
     FM190300 00000KT P6SM FEW250=

USA.gov is the U.S. government's official web portal to all federal, state and local government web resources and services.